KF0AIT Weather Reports


Display with metric or nautical units.
time (UTC)temp
F
wind
direction
speed
MPH
gust
MPH
rain 1hr
in
rain 24hr
in
rain mn
in
humidity
%
barometer
mb
20260902192703 83 157 0.0 1.0 0.00 0.00 0.00 64 1006.0
20260902191803 83 114 0.0 2.0 0.00 0.00 0.00 64 1006.0
20260902190903 83 139 0.0 1.0 0.00 0.00 0.00 65 1006.0
20260902190003 83 139 0.0 1.0 0.00 0.00 0.00 65 1006.0
20260902185403 82 157 0.0 3.0 0.00 0.00 0.00 66 1006.0
20260902184524 82 157 0.0 3.0 0.00 0.00 0.00 65 1006.0
20260902183603 81 137 0.0 4.0 0.00 0.00 0.00 65 1007.1
20260902182703 81 135 0.0 2.0 0.00 0.00 0.00 65 1007.1
20260902181803 80 140 0.0 4.0 0.00 0.00 0.00 66 1007.1
20260902180903 80 82 1.0 3.0 0.00 0.00 0.00 66 1007.1
20260902180005 80 0 0.0 0.0 0.00 0.00 0.00 66 1007.1
20260902175406 79 0 0.0 0.0 0.00 0.00 0.00 67 1008.1
20260902174524 78 45 0.0 1.0 0.00 0.00 0.00 69 1008.1
20260902173603 78 45 0.0 1.0 0.00 0.00 0.00 69 1008.1
20260902172703 78 0 0.0 0.0 0.00 0.00 0.00 69 1008.1
20260902171803 77 67 0.0 1.0 0.00 0.00 0.00 70 1008.1
20260902170903 76 67 1.0 1.0 0.00 0.00 0.00 71 1008.1
20260902170004 76 0 0.0 0.0 0.00 0.00 0.00 70 1008.1
20260902165403 76 0 0.0 0.0 0.00 0.00 0.00 72 1008.1
20260902164524 75 0 0.0 0.0 0.00 0.00 0.00 72 1008.1
20260902163603 74 0 0.0 0.0 0.00 0.00 0.00 72 1008.1
20260902162704 74 0 0.0 0.0 0.00 0.00 0.00 75 1008.1
20260902161803 73 0 0.0 0.0 0.00 0.00 0.00 77 1008.1
20260902160924 72 202 0.0 1.0 0.00 0.00 0.00 77 1008.1
20260902160003 72 202 0.0 1.0 0.00 0.00 0.00 79 1008.1
20260902155403 71 202 0.0 1.0 0.00 0.00 0.00 79 1008.1
20260902154503 71 0 0.0 0.0 0.00 0.00 0.00 80 1008.1
20260902153624 70 0 0.0 0.0 0.00 0.00 0.00 81 1008.1
20260902152703 69 202 0.0 1.0 0.00 0.00 0.00 81 1009.2
20260902151803 69 202 0.0 2.0 0.00 0.00 0.00 81 1009.2
20260902150903 69 202 2.0 2.0 0.00 0.00 0.00 81 1008.1
20260902150025 68 0 0.0 0.0 0.00 0.00 0.00 81 1008.1
20260902145424 68 0 0.0 0.0 0.00 0.00 0.00 82 1009.2
20260902144503 67 202 0.0 1.0 0.00 0.00 0.00 82 1009.2
20260902143603 67 0 0.0 0.0 0.00 0.00 0.00 82 1008.1
20260902142705 66 0 0.0 0.0 0.00 0.00 0.00 82 1009.2
20260902141803 66 157 0.0 2.0 0.00 0.00 0.00 82 1009.2
20260902140924 66 157 0.0 2.0 0.00 0.00 0.00 81 1010.2
20260902140004 67 157 0.0 1.0 0.00 0.00 0.00 80 1010.2
20260902135403 67 0 0.0 0.0 0.00 0.00 0.00 79 1008.1
20260902134503 67 0 0.0 0.0 0.00 0.00 0.00 78 1008.1
20260902133603 67 0 0.0 0.0 0.00 0.00 0.00 77 1009.2
20260902132703 67 90 0.0 1.0 0.00 0.00 0.00 78 1009.2
20260902131824 66 45 0.0 2.0 0.00 0.00 0.00 78 1009.2
20260902130903 66 0 0.0 0.0 0.00 0.00 0.00 78 1009.2
20260902130003 66 0 0.0 0.0 0.00 0.00 0.00 78 1009.2
20260902125403 66 0 0.0 0.0 0.00 0.00 0.00 78 1009.2
20260902124504 66 0 0.0 0.0 0.00 0.00 0.00 78 1009.2
20260902123624 65 0 0.0 0.0 0.00 0.00 0.00 78 1008.1
20260902122703 65 0 0.0 0.0 0.00 0.00 0.00 77 1008.1
20260902121803 65 0 0.0 0.0 0.00 0.00 0.00 77 1008.1
20260902120903 65 0 0.0 0.0 0.00 0.00 0.00 77 1008.1
20260902120003 65 45 0.0 1.0 0.00 0.00 0.00 77 1008.1
20260902115403 65 0 0.0 0.0 0.00 0.00 0.00 77 1008.1
20260902114503 65 0 0.0 0.0 0.00 0.00 0.00 77 1008.1
20260902113603 65 0 0.0 0.0 0.00 0.00 0.00 77 1008.1
20260902112703 65 45 0.0 1.0 0.00 0.00 0.00 76 1007.1
20260902111824 65 0 0.0 0.0 0.00 0.00 0.00 76 1007.1
20260902110903 65 0 0.0 0.0 0.00 0.00 0.00 76 1008.1
20260902110024 65 0 0.0 0.0 0.00 0.00 0.00 76 1008.1
20260902105403 65 0 0.0 0.0 0.00 0.00 0.00 76 1007.1
20260902104503 65 0 0.0 0.0 0.00 0.00 0.00 76 1007.1
20260902103624 66 0 0.0 0.0 0.00 0.00 0.00 75 1007.1
20260902102703 66 0 0.0 0.0 0.00 0.00 0.00 75 1008.1
20260902101803 66 0 0.0 0.0 0.00 0.00 0.00 75 1008.1
20260902100903 66 0 0.0 0.0 0.00 0.00 0.00 75 1008.1
20260902100024 66 0 0.0 0.0 0.00 0.00 0.00 74 1008.1
20260902095424 66 0 0.0 0.0 0.00 0.00 0.00 74 1008.1
20260902094523 66 0 0.0 0.0 0.00 0.00 0.00 74 1008.1
20260902093603 66 0 0.0 0.0 0.00 0.00 0.00 74 1008.1
20260902092703 66 0 0.0 0.0 0.00 0.00 0.00 74 1008.1
20260902091803 66 0 0.0 0.0 0.00 0.00 0.00 74 1008.1
20260902090903 67 0 0.0 0.0 0.00 0.00 0.00 74 1008.1
20260902090004 67 0 0.0 0.0 0.00 0.00 0.00 75 1008.1
20260902085403 67 0 0.0 0.0 0.00 0.00 0.00 75 1008.1
20260902084524 67 0 0.0 0.0 0.00 0.00 0.00 75 1008.1
20260902083603 67 0 0.0 0.0 0.00 0.00 0.00 75 1008.1
20260902082703 67 0 0.0 0.0 0.00 0.00 0.00 75 1008.1
20260902081803 67 0 0.0 0.0 0.00 0.00 0.00 75 1008.1
20260902080903 67 0 0.0 0.0 0.00 0.00 0.00 74 1008.1
20260902080003 67 45 0.0 1.0 0.00 0.00 0.00 73 1008.1
20260902075403 67 45 0.0 1.0 0.00 0.00 0.00 73 1008.1
20260902074524 67 0 0.0 0.0 0.00 0.00 0.00 73 1008.1
20260902073603 67 0 0.0 0.0 0.00 0.00 0.00 73 1008.1
20260902072724 67 0 0.0 0.0 0.00 0.00 0.00 74 1008.1
20260902071803 67 0 0.0 0.0 0.00 0.00 0.00 74 1008.1
20260902070903 67 0 0.0 0.0 0.00 0.00 0.00 74 1008.1
20260902070003 67 0 0.0 0.0 0.00 0.00 0.00 74 1008.1
20260902065403 67 0 0.0 0.0 0.00 0.00 0.00 74 1008.1
20260902064503 67 0 0.0 0.0 0.00 0.00 0.00 74 1008.1
20260902063603 67 67 0.0 1.0 0.00 0.00 0.00 74 1007.1
20260902062703 67 67 0.0 1.0 0.00 0.00 0.00 74 1007.1
20260902061803 67 0 0.0 0.0 0.00 0.00 0.00 74 1007.1
20260902060903 67 0 0.0 0.0 0.00 0.00 0.00 74 1008.1
20260902060003 68 0 0.0 0.0 0.00 0.00 0.00 74 1008.1
20260902055424 68 0 0.0 0.0 0.00 0.00 0.00 74 1008.1
20260902054503 68 0 0.0 0.0 0.00 0.00 0.00 74 1008.1
20260902053603 68 0 0.0 0.0 0.00 0.00 0.00 75 1008.1
20260902052703 68 67 0.0 1.0 0.00 0.00 0.00 75 1008.1
20260902051824 68 0 0.0 0.0 0.00 0.00 0.00 75 1008.1
20260902050903 68 0 0.0 0.0 0.00 0.00 0.00 76 1007.1
20260902050005 68 0 0.0 0.0 0.00 0.00 0.00 76 1007.1
20260902045403 68 0 0.0 0.0 0.00 0.00 0.00 76 1008.1
20260902044503 68 67 0.0 1.0 0.00 0.00 0.00 76 1008.1
20260902043603 68 0 0.0 0.0 0.00 0.00 0.00 76 1008.1
20260902042703 68 0 0.0 0.0 0.00 0.00 0.00 76 1008.1
20260902041824 68 0 0.0 0.0 0.00 0.00 0.00 76 1008.1
20260902040924 68 0 0.0 0.0 0.00 0.00 0.00 76 1008.1
20260902040003 68 0 0.0 0.0 0.00 0.00 0.00 76 1008.1
20260902035403 68 0 0.0 0.0 0.00 0.00 0.00 76 1008.1
20260902034503 68 0 0.0 0.0 0.00 0.00 0.00 76 1008.1
20260902033603 68 67 0.0 1.0 0.00 0.00 0.00 76 1008.1
20260902032703 68 0 0.0 0.0 0.00 0.00 0.00 76 1008.1
20260902031803 68 0 0.0 0.0 0.00 0.00 0.00 76 1008.1
20260902030903 68 0 0.0 0.0 0.00 0.00 0.00 76 1008.1
20260902030003 68 90 0.0 1.0 0.00 0.00 0.00 76 1008.1
20260902025403 68 90 0.0 1.0 0.00 0.00 0.00 76 1008.1
20260902024524 68 0 0.0 0.0 0.00 0.00 0.00 77 1008.1
20260902023603 69 0 0.0 0.0 0.00 0.00 0.00 77 1008.1
20260902022703 69 0 0.0 0.0 0.00 0.00 0.00 76 1009.2
20260902021803 69 0 0.0 0.0 0.00 0.00 0.00 75 1009.2
20260902020903 69 0 0.0 0.0 0.00 0.00 0.00 75 1009.2
20260902020003 69 0 0.0 0.0 0.00 0.00 0.00 76 1009.2
20260902015403 69 22 2.0 2.0 0.00 0.00 0.00 76 1008.1
20260902014503 69 22 2.0 2.0 0.00 0.00 0.00 76 1008.1
20260902013603 69 67 0.0 1.0 0.00 0.00 0.00 74 1008.1
20260902012703 69 0 0.0 0.0 0.00 0.00 0.00 73 1008.1
20260902011803 69 0 0.0 0.0 0.00 0.00 0.00 72 1008.1
20260902010903 70 0 0.0 0.0 0.00 0.00 0.00 71 1008.1
20260902010003 70 67 0.0 1.0 0.00 0.00 0.00 71 1008.1
20260902005424 71 67 0.0 1.0 0.00 0.00 0.00 71 1008.1
20260902004503 71 0 0.0 0.0 0.00 0.00 0.00 71 1008.1
20260902003603 71 0 0.0 0.0 0.00 0.00 0.00 71 1009.2
20260902002703 72 0 0.0 0.0 0.00 0.00 0.00 69 1009.2
20260902001824 72 0 0.0 0.0 0.00 0.00 0.00 69 1009.2
20260902000903 72 0 0.0 0.0 0.00 0.00 0.00 68 1008.1
20260902000004 72 67 0.0 2.0 0.00 0.00 0.00 68 1008.1
20260901235424 72 67 1.0 2.0 0.00 0.00 0.00 68 1009.2
20260901234503 73 45 0.0 1.0 0.00 0.00 0.00 67 1009.2
20260901233624 74 0 0.0 0.0 0.00 0.00 0.00 63 1009.2
20260901232703 74 14 0.0 2.0 0.00 0.00 0.00 63 1009.2
20260901231803 74 0 0.0 0.0 0.00 0.00 0.00 62 1009.2
20260901230903 74 0 0.0 0.0 0.00 0.00 0.00 62 1009.2
20260901230004 74 0 0.0 0.0 0.00 0.00 0.00 61 1009.2
20260901225424 75 45 0.0 1.0 0.00 0.00 0.00 61 1009.2
20260901224503 75 349 1.0 3.0 0.00 0.00 0.00 60 1009.2
20260901223603 75 278 0.0 3.0 0.00 0.00 0.00 60 1009.2
20260901222703 76 0 0.0 0.0 0.00 0.00 0.00 61 1009.2
20260901221803 76 270 0.0 1.0 0.00 0.00 0.00 59 1009.2
20260901220903 76 270 0.0 1.0 0.00 0.00 0.00 59 1009.2
20260901220003 76 0 0.0 0.0 0.00 0.00 0.00 59 1009.2
20260901215403 76 0 0.0 0.0 0.00 0.00 0.00 59 1009.2
20260901214524 76 0 0.0 0.0 0.00 0.00 0.00 59 1009.2
20260901213624 76 45 0.0 1.0 0.00 0.00 0.00 58 1009.2
20260901212724 76 0 0.0 0.0 0.00 0.00 0.00 58 1009.2
20260901211824 76 0 0.0 0.0 0.00 0.00 0.00 58 1009.2
20260901210903 76 45 0.0 1.0 0.00 0.00 0.00 58 1009.2
20260901210003 77 0 0.0 0.0 0.00 0.00 0.00 58 1009.2
20260901205424 77 337 0.0 1.0 0.00 0.00 0.00 57 1009.2
20260901204503 77 0 0.0 0.0 0.00 0.00 0.00 57 1009.2
20260901203603 78 0 0.0 0.0 0.00 0.00 0.00 57 1009.2
20260901202724 78 0 0.0 0.0 0.00 0.00 0.00 56 1009.2
20260901201803 78 0 0.0 0.0 0.00 0.00 0.00 57 1009.2
20260901200903 78 45 0.0 1.0 0.00 0.00 0.00 57 1009.2
20260901200003 78 0 0.0 0.0 0.00 0.00 0.00 58 1009.2
20260901195403 78 315 0.0 1.0 0.00 0.00 0.00 59 1009.2
20260901194503 77 59 0.0 2.0 0.00 0.00 0.00 59 1009.2
20260901193603 76 0 0.0 0.0 0.00 0.00 0.00 60 1009.2